| time (UTC) | temp F | wind direction | speed MPH | gust MPH | rain 1hr in | rain 24hr in | rain mn in | humidity % | barometer mb |
| 20260902142530 | 66 | 77 | 6.0 | 10.0 | 0.00 | 0.00 | 0.00 | 77 | 1027.0 |
| 20260902142026 | 65 | 58 | 8.0 | 11.0 | 0.00 | 0.00 | 0.00 | 77 | 1027.0 |
| 20260902141549 | 65 | 69 | 7.0 | 12.0 | 0.00 | 0.00 | 0.00 | 77 | 1026.9 |
| 20260902141034 | 65 | 78 | 8.0 | 12.0 | 0.00 | 0.00 | 0.00 | 78 | 1026.9 |
| 20260902140526 | 65 | 68 | 8.0 | 12.0 | 0.00 | 0.00 | 0.00 | 78 | 1026.8 |
| 20260902140048 | 65 | 69 | 9.0 | 11.0 | 0.00 | 0.00 | 0.00 | 77 | 1026.7 |
| 20260902135527 | 65 | 70 | 7.0 | 12.0 | 0.00 | 0.00 | 0.00 | 78 | 1026.7 |
| 20260902135029 | 64 | 80 | 8.0 | 12.0 | 0.00 | 0.00 | 0.00 | 77 | 1026.7 |
| 20260902134547 | 64 | 59 | 9.0 | 12.0 | 0.00 | 0.00 | 0.00 | 78 | 1026.8 |
| 20260902134028 | 64 | 69 | 6.0 | 12.0 | 0.00 | 0.00 | 0.00 | 78 | 1026.7 |
| 20260902133528 | 64 | 69 | 7.0 | 11.0 | 0.00 | 0.00 | 0.00 | 79 | 1026.7 |
| 20260902133044 | 64 | 75 | 6.0 | 10.0 | 0.00 | 0.00 | 0.00 | 78 | 1026.6 |
| 20260902132528 | 64 | 79 | 7.0 | 10.0 | 0.00 | 0.00 | 0.00 | 78 | 1026.5 |
| 20260902132027 | 64 | 71 | 7.0 | 10.0 | 0.00 | 0.00 | 0.00 | 79 | 1026.3 |
| 20260902131553 | 64 | 72 | 8.0 | 10.0 | 0.00 | 0.00 | 0.00 | 79 | 1026.3 |
| 20260902131030 | 63 | 53 | 6.0 | 10.0 | 0.00 | 0.00 | 0.00 | 80 | 1026.2 |
| 20260902130536 | 63 | 71 | 4.0 | 6.0 | 0.00 | 0.00 | 0.00 | 81 | 1026.2 |
| 20260902130053 | 63 | 62 | 3.0 | 6.0 | 0.00 | 0.00 | 0.00 | 82 | 1026.2 |
| 20260902125529 | 62 | 31 | 3.0 | 5.0 | 0.00 | 0.00 | 0.00 | 82 | 1026.2 |
| 20260902125031 | 62 | 22 | 4.0 | 6.0 | 0.00 | 0.00 | 0.00 | 82 | 1026.1 |
| 20260902124545 | 62 | 22 | 3.0 | 7.0 | 0.00 | 0.00 | 0.00 | 83 | 1026.1 |
| 20260902124027 | 61 | 19 | 4.0 | 7.0 | 0.00 | 0.00 | 0.00 | 84 | 1026.2 |
| 20260902123527 | 61 | 19 | 4.0 | 5.0 | 0.00 | 0.00 | 0.00 | 84 | 1026.3 |
| 20260902123058 | 60 | 19 | 3.0 | 6.0 | 0.00 | 0.00 | 0.00 | 84 | 1026.2 |
| 20260902122528 | 60 | 18 | 3.0 | 7.0 | 0.00 | 0.00 | 0.00 | 84 | 1026.2 |
| 20260902122026 | 60 | 28 | 4.0 | 9.0 | 0.00 | 0.00 | 0.00 | 84 | 1026.1 |
| 20260902121556 | 59 | 16 | 4.0 | 9.0 | 0.00 | 0.00 | 0.00 | 85 | 1026.0 |
| 20260902121028 | 59 | 30 | 4.0 | 8.0 | 0.00 | 0.00 | 0.00 | 85 | 1025.9 |
| 20260902120528 | 59 | 37 | 5.0 | 8.0 | 0.00 | 0.00 | 0.00 | 85 | 1025.8 |
| 20260902120046 | 58 | 40 | 5.0 | 8.0 | 0.00 | 0.00 | 0.00 | 85 | 1025.7 |
| 20260902115526 | 58 | 30 | 4.0 | 8.0 | 0.00 | 0.00 | 0.00 | 85 | 1025.9 |
| 20260902115028 | 58 | 34 | 5.0 | 8.0 | 0.00 | 0.00 | 0.00 | 85 | 1025.8 |
| 20260902114545 | 58 | 44 | 5.0 | 8.0 | 0.00 | 0.00 | 0.00 | 85 | 1025.6 |
| 20260902114028 | 58 | 40 | 5.0 | 7.0 | 0.00 | 0.00 | 0.00 | 85 | 1025.5 |
| 20260902113527 | 58 | 43 | 4.0 | 7.0 | 0.00 | 0.00 | 0.00 | 85 | 1025.6 |
| 20260902113047 | 58 | 43 | 4.0 | 7.0 | 0.00 | 0.00 | 0.00 | 85 | 1025.5 |
| 20260902112530 | 58 | 30 | 4.0 | 9.0 | 0.00 | 0.00 | 0.00 | 85 | 1025.7 |
| 20260902112028 | 58 | 41 | 5.0 | 9.0 | 0.00 | 0.00 | 0.00 | 85 | 1025.6 |
| 20260902111553 | 58 | 37 | 5.0 | 9.0 | 0.00 | 0.00 | 0.00 | 85 | 1025.6 |
| 20260902111026 | 58 | 50 | 5.0 | 9.0 | 0.00 | 0.00 | 0.00 | 85 | 1025.5 |
| 20260902110530 | 58 | 50 | 5.0 | 9.0 | 0.00 | 0.00 | 0.00 | 85 | 1025.7 |
| 20260902110048 | 58 | 26 | 4.0 | 9.0 | 0.00 | 0.00 | 0.00 | 85 | 1025.7 |
| 20260902105527 | 58 | 42 | 5.0 | 9.0 | 0.00 | 0.00 | 0.00 | 86 | 1025.6 |
| 20260902105027 | 58 | 37 | 6.0 | 10.0 | 0.00 | 0.00 | 0.00 | 86 | 1025.6 |
| 20260902104552 | 58 | 53 | 6.0 | 10.0 | 0.00 | 0.00 | 0.00 | 86 | 1025.4 |
| 20260902104027 | 57 | 36 | 5.0 | 8.0 | 0.00 | 0.00 | 0.00 | 86 | 1025.4 |
| 20260902103530 | 57 | 42 | 1.0 | 3.0 | 0.00 | 0.00 | 0.00 | 86 | 1025.4 |
| 20260902103045 | 57 | 44 | 1.0 | 3.0 | 0.00 | 0.00 | 0.00 | 86 | 1025.4 |
| 20260902102528 | 57 | 0 | 0.0 | 8.0 | 0.00 | 0.00 | 0.00 | 86 | 1025.5 |
| 20260902102028 | 57 | 43 | 3.0 | 11.0 | 0.00 | 0.00 | 0.00 | 87 | 1025.5 |
| 20260902101540 | 57 | 30 | 5.0 | 11.0 | 0.00 | 0.00 | 0.00 | 87 | 1025.4 |
| 20260902101026 | 57 | 24 | 5.0 | 10.0 | 0.00 | 0.00 | 0.00 | 87 | 1025.2 |
| 20260902100528 | 57 | 36 | 5.0 | 10.0 | 0.00 | 0.00 | 0.00 | 87 | 1025.3 |
| 20260902100103 | 57 | 38 | 6.0 | 9.0 | 0.00 | 0.00 | 0.00 | 88 | 1025.2 |
| 20260902095528 | 57 | 38 | 4.0 | 8.0 | 0.00 | 0.00 | 0.00 | 88 | 1025.2 |
| 20260902095026 | 57 | 26 | 2.0 | 8.0 | 0.00 | 0.00 | 0.00 | 87 | 1025.0 |
| 20260902094547 | 57 | 26 | 1.0 | 8.0 | 0.00 | 0.00 | 0.00 | 87 | 1025.1 |
| 20260902094028 | 57 | 26 | 5.0 | 9.0 | 0.00 | 0.00 | 0.00 | 88 | 1025.0 |
| 20260902093529 | 57 | 15 | 6.0 | 9.0 | 0.00 | 0.00 | 0.00 | 88 | 1024.9 |
| 20260902093047 | 58 | 17 | 6.0 | 10.0 | 0.00 | 0.00 | 0.00 | 87 | 1024.8 |
| 20260902092527 | 58 | 38 | 6.0 | 10.0 | 0.00 | 0.00 | 0.00 | 88 | 1024.7 |
| 20260902092030 | 57 | 26 | 7.0 | 10.0 | 0.00 | 0.00 | 0.00 | 88 | 1024.8 |
| 20260902091552 | 58 | 22 | 7.0 | 10.0 | 0.00 | 0.00 | 0.00 | 87 | 1024.8 |
| 20260902091026 | 58 | 13 | 7.0 | 10.0 | 0.00 | 0.00 | 0.00 | 87 | 1024.9 |
| 20260902090527 | 57 | 18 | 5.0 | 10.0 | 0.00 | 0.00 | 0.00 | 87 | 1025.0 |
| 20260902090047 | 57 | 37 | 6.0 | 10.0 | 0.00 | 0.00 | 0.00 | 87 | 1024.9 |
| 20260902085526 | 58 | 37 | 8.0 | 11.0 | 0.00 | 0.00 | 0.00 | 87 | 1024.8 |
| 20260902085027 | 58 | 37 | 7.0 | 11.0 | 0.00 | 0.00 | 0.00 | 87 | 1024.9 |
| 20260902084557 | 57 | 21 | 7.0 | 11.0 | 0.00 | 0.00 | 0.00 | 87 | 1024.8 |
| 20260902084027 | 58 | 24 | 8.0 | 11.0 | 0.00 | 0.00 | 0.00 | 87 | 1024.8 |
| 20260902083529 | 57 | 17 | 8.0 | 10.0 | 0.00 | 0.00 | 0.00 | 87 | 1024.9 |
| 20260902083047 | 57 | 17 | 6.0 | 10.0 | 0.00 | 0.00 | 0.00 | 87 | 1024.8 |
| 20260902082527 | 57 | 5 | 6.0 | 10.0 | 0.00 | 0.00 | 0.00 | 87 | 1024.7 |
| 20260902082028 | 57 | 17 | 7.0 | 10.0 | 0.00 | 0.00 | 0.00 | 87 | 1024.7 |
| 20260902081548 | 57 | 26 | 7.0 | 10.0 | 0.00 | 0.00 | 0.00 | 87 | 1024.6 |
| 20260902081029 | 56 | 22 | 2.0 | 6.0 | 0.00 | 0.00 | 0.00 | 86 | 1024.5 |
| 20260902080527 | 55 | 0 | 0.0 | 6.0 | 0.00 | 0.00 | 0.00 | 85 | 1024.7 |
| 20260902080049 | 56 | 0 | 0.0 | 9.0 | 0.00 | 0.00 | 0.00 | 85 | 1024.6 |
| 20260902075526 | 57 | 0 | 3.0 | 9.0 | 0.00 | 0.00 | 0.00 | 86 | 1024.7 |
| 20260902075028 | 57 | 18 | 6.0 | 9.0 | 0.00 | 0.00 | 0.00 | 88 | 1024.6 |
| 20260902074545 | 56 | 27 | 5.0 | 9.0 | 0.00 | 0.00 | 0.00 | 88 | 1024.5 |
| 20260902074029 | 55 | 0 | 0.0 | 2.0 | 0.00 | 0.00 | 0.00 | 87 | 1024.4 |
| 20260902073527 | 55 | 0 | 0.0 | 8.0 | 0.00 | 0.00 | 0.00 | 87 | 1024.3 |
| 20260902073051 | 56 | 0 | 2.0 | 8.0 | 0.00 | 0.00 | 0.00 | 88 | 1024.4 |
| 20260902072527 | 55 | 0 | 0.0 | 8.0 | 0.00 | 0.00 | 0.00 | 87 | 1024.5 |
| 20260902072027 | 57 | 0 | 3.0 | 8.0 | 0.00 | 0.00 | 0.00 | 89 | 1024.4 |
| 20260902071550 | 56 | 16 | 3.0 | 8.0 | 0.00 | 0.00 | 0.00 | 89 | 1024.3 |
| 20260902071027 | 54 | 18 | 0.0 | 3.0 | 0.00 | 0.00 | 0.00 | 88 | 1024.3 |
| 20260902070527 | 54 | 18 | 0.0 | 3.0 | 0.00 | 0.00 | 0.00 | 88 | 1024.3 |
| 20260902070050 | 54 | 0 | 0.0 | 3.0 | 0.00 | 0.00 | 0.00 | 88 | 1024.3 |
| 20260902065529 | 54 | 0 | 0.0 | 0.0 | 0.00 | 0.00 | 0.00 | 87 | 1024.2 |
| 20260902065027 | 54 | 0 | 0.0 | 0.0 | 0.00 | 0.00 | 0.00 | 87 | 1024.2 |
| 20260902064552 | 54 | 0 | 0.0 | 0.0 | 0.00 | 0.00 | 0.00 | 87 | 1024.1 |
| 20260902064028 | 54 | 0 | 0.0 | 0.0 | 0.00 | 0.00 | 0.00 | 87 | 1024.1 |
| 20260902063530 | 54 | 0 | 0.0 | 0.0 | 0.00 | 0.00 | 0.00 | 87 | 1024.1 |
| 20260902063050 | 54 | 0 | 0.0 | 1.0 | 0.00 | 0.00 | 0.00 | 87 | 1024.2 |
| 20260902062527 | 55 | 0 | 0.0 | 2.0 | 0.00 | 0.00 | 0.00 | 87 | 1024.1 |
| 20260902062027 | 55 | 0 | 0.0 | 2.0 | 0.00 | 0.00 | 0.00 | 86 | 1024.1 |
| 20260902061556 | 55 | 0 | 0.0 | 2.0 | 0.00 | 0.00 | 0.00 | 86 | 1024.1 |
| 20260902061026 | 55 | 0 | 0.0 | 2.0 | 0.00 | 0.00 | 0.00 | 85 | 1024.2 |
| 20260902060526 | 55 | 0 | 0.0 | 2.0 | 0.00 | 0.00 | 0.00 | 85 | 1024.0 |
| 20260902060048 | 55 | 0 | 0.0 | 1.0 | 0.00 | 0.00 | 0.00 | 84 | 1024.1 |
| 20260902055530 | 56 | 0 | 0.0 | 0.0 | 0.00 | 0.00 | 0.00 | 83 | 1024.1 |
| 20260902055026 | 57 | 0 | 0.0 | 1.0 | 0.00 | 0.00 | 0.00 | 81 | 1024.1 |
| 20260902054550 | 58 | 0 | 0.0 | 4.0 | 0.00 | 0.00 | 0.00 | 80 | 1024.2 |
| 20260902054028 | 59 | 18 | 0.0 | 5.0 | 0.00 | 0.00 | 0.00 | 80 | 1024.1 |
| 20260902053525 | 60 | 18 | 3.0 | 5.0 | 0.00 | 0.00 | 0.00 | 81 | 1024.0 |
| 20260902053048 | 60 | 18 | 2.0 | 5.0 | 0.00 | 0.00 | 0.00 | 82 | 1023.9 |
| 20260902052531 | 59 | 18 | 3.0 | 5.0 | 0.00 | 0.00 | 0.00 | 82 | 1024.1 |
| 20260902052028 | 59 | 18 | 3.0 | 4.0 | 0.00 | 0.00 | 0.00 | 83 | 1023.9 |
| 20260902051543 | 59 | 18 | 2.0 | 5.0 | 0.00 | 0.00 | 0.00 | 84 | 1023.9 |
| 20260902051028 | 58 | 18 | 1.0 | 5.0 | 0.00 | 0.00 | 0.00 | 85 | 1023.9 |
| 20260902050528 | 58 | 0 | 0.0 | 3.0 | 0.00 | 0.00 | 0.00 | 85 | 1023.9 |
| 20260902045526 | 58 | 18 | 2.0 | 4.0 | 0.00 | 0.00 | 0.00 | 88 | 1023.7 |
| 20260902045027 | 57 | 18 | 3.0 | 4.0 | 0.00 | 0.00 | 0.00 | 89 | 1023.7 |
| 20260902044546 | 57 | 18 | 1.0 | 5.0 | 0.00 | 0.00 | 0.00 | 89 | 1023.7 |
| 20260902044028 | 57 | 15 | 0.0 | 8.0 | 0.00 | 0.00 | 0.00 | 89 | 1023.6 |
| 20260902043531 | 58 | 24 | 3.0 | 8.0 | 0.00 | 0.00 | 0.00 | 90 | 1023.7 |
| 20260902043044 | 57 | 30 | 5.0 | 7.0 | 0.00 | 0.00 | 0.00 | 90 | 1023.6 |
| 20260902042528 | 55 | 0 | 0.0 | 0.0 | 0.00 | 0.00 | 0.00 | 90 | 1023.5 |
| 20260902042027 | 55 | 0 | 0.0 | 0.0 | 0.00 | 0.00 | 0.00 | 89 | 1023.2 |
| 20260902041543 | 55 | 0 | 0.0 | 0.0 | 0.00 | 0.00 | 0.00 | 89 | 1023.1 |
| 20260902041031 | 55 | 0 | 0.0 | 0.0 | 0.00 | 0.00 | 0.00 | 89 | 1023.1 |
| 20260902040531 | 55 | 0 | 0.0 | 0.0 | 0.00 | 0.00 | 0.00 | 89 | 1023.0 |
| 20260902040050 | 55 | 0 | 0.0 | 0.0 | 0.00 | 0.00 | 0.00 | 89 | 1022.9 |
| 20260902035526 | 55 | 0 | 0.0 | 0.0 | 0.00 | 0.00 | 0.00 | 89 | 1023.0 |
| 20260902035027 | 55 | 0 | 0.0 | 0.0 | 0.00 | 0.00 | 0.00 | 89 | 1023.0 |
| 20260902034546 | 55 | 0 | 0.0 | 0.0 | 0.00 | 0.00 | 0.00 | 88 | 1022.9 |
| 20260902034032 | 55 | 0 | 0.0 | 0.0 | 0.00 | 0.00 | 0.00 | 88 | 1022.9 |
| 20260902033527 | 55 | 0 | 0.0 | 0.0 | 0.00 | 0.00 | 0.00 | 88 | 1023.0 |
| 20260902033046 | 55 | 0 | 0.0 | 0.0 | 0.00 | 0.00 | 0.00 | 88 | 1022.8 |
| 20260902032527 | 56 | 0 | 0.0 | 0.0 | 0.00 | 0.00 | 0.00 | 88 | 1022.7 |
| 20260902032026 | 56 | 0 | 0.0 | 0.0 | 0.00 | 0.00 | 0.00 | 88 | 1022.9 |
| 20260902031547 | 56 | 0 | 0.0 | 0.0 | 0.00 | 0.00 | 0.00 | 88 | 1022.8 |
| 20260902031027 | 56 | 0 | 0.0 | 0.0 | 0.00 | 0.00 | 0.00 | 88 | 1022.7 |
| 20260902030526 | 56 | 0 | 0.0 | 0.0 | 0.00 | 0.00 | 0.00 | 88 | 1022.7 |
| 20260902030048 | 56 | 0 | 0.0 | 0.0 | 0.00 | 0.00 | 0.00 | 87 | 1022.7 |
| 20260902025530 | 56 | 0 | 0.0 | 0.0 | 0.00 | 0.00 | 0.00 | 88 | 1022.6 |
| 20260902025029 | 56 | 0 | 0.0 | 0.0 | 0.00 | 0.00 | 0.00 | 87 | 1022.7 |
| 20260902024545 | 56 | 0 | 0.0 | 0.0 | 0.00 | 0.00 | 0.00 | 87 | 1022.7 |
| 20260902024027 | 56 | 0 | 0.0 | 0.0 | 0.00 | 0.00 | 0.00 | 87 | 1022.8 |
| 20260902023528 | 56 | 0 | 0.0 | 0.0 | 0.00 | 0.00 | 0.00 | 87 | 1022.8 |
| 20260902023048 | 56 | 0 | 0.0 | 0.0 | 0.00 | 0.00 | 0.00 | 86 | 1022.6 |
| 20260902022528 | 56 | 0 | 0.0 | 0.0 | 0.00 | 0.00 | 0.00 | 86 | 1022.6 |
| 20260902022027 | 56 | 0 | 0.0 | 0.0 | 0.00 | 0.00 | 0.00 | 86 | 1022.7 |
| 20260902021543 | 56 | 0 | 0.0 | 0.0 | 0.00 | 0.00 | 0.00 | 86 | 1022.6 |
| 20260902021027 | 56 | 0 | 0.0 | 0.0 | 0.00 | 0.00 | 0.00 | 86 | 1022.5 |
| 20260902020527 | 56 | 0 | 0.0 | 0.0 | 0.00 | 0.00 | 0.00 | 85 | 1022.6 |
| 20260902020047 | 56 | 0 | 0.0 | 0.0 | 0.00 | 0.00 | 0.00 | 85 | 1022.6 |
| 20260902015527 | 56 | 0 | 0.0 | 0.0 | 0.00 | 0.00 | 0.00 | 85 | 1022.6 |
| 20260902015028 | 56 | 0 | 0.0 | 0.0 | 0.00 | 0.00 | 0.00 | 85 | 1022.7 |
| 20260902014547 | 56 | 0 | 0.0 | 3.0 | 0.00 | 0.00 | 0.00 | 85 | 1022.7 |
| 20260902014028 | 56 | 0 | 0.0 | 3.0 | 0.00 | 0.00 | 0.00 | 84 | 1022.7 |
| 20260902013529 | 56 | 0 | 1.0 | 3.0 | 0.00 | 0.00 | 0.00 | 84 | 1022.5 |
| 20260902013049 | 57 | 312 | 1.0 | 3.0 | 0.00 | 0.00 | 0.00 | 84 | 1022.5 |
| 20260902012527 | 57 | 312 | 1.0 | 3.0 | 0.00 | 0.00 | 0.00 | 84 | 1022.4 |
| 20260902012031 | 57 | 312 | 1.0 | 3.0 | 0.00 | 0.00 | 0.00 | 83 | 1022.4 |
| 20260902011550 | 57 | 312 | 1.0 | 3.0 | 0.00 | 0.00 | 0.00 | 83 | 1022.4 |
| 20260902011028 | 57 | 312 | 1.0 | 3.0 | 0.00 | 0.00 | 0.00 | 83 | 1022.4 |
| 20260902010528 | 57 | 312 | 2.0 | 3.0 | 0.00 | 0.00 | 0.00 | 83 | 1022.5 |
| 20260902010050 | 57 | 312 | 0.0 | 2.0 | 0.00 | 0.00 | 0.00 | 82 | 1022.4 |
| 20260902005530 | 58 | 312 | 0.0 | 2.0 | 0.00 | 0.00 | 0.00 | 82 | 1022.4 |
| 20260902005028 | 58 | 312 | 0.0 | 2.0 | 0.00 | 0.00 | 0.00 | 82 | 1022.4 |
| 20260902004545 | 58 | 0 | 0.0 | 0.0 | 0.00 | 0.00 | 0.00 | 82 | 1022.4 |
| 20260902004031 | 58 | 0 | 0.0 | 2.0 | 0.00 | 0.00 | 0.00 | 82 | 1022.6 |
| 20260902003528 | 58 | 0 | 0.0 | 2.0 | 0.00 | 0.00 | 0.00 | 82 | 1022.5 |
| 20260902003045 | 59 | 312 | 0.0 | 0.0 | 0.00 | 0.00 | 0.00 | 81 | 1022.5 |
| 20260902002527 | 59 | 0 | 0.0 | 0.0 | 0.00 | 0.00 | 0.00 | 81 | 1022.5 |
| 20260902002034 | 59 | 0 | 0.0 | 0.0 | 0.00 | 0.00 | 0.00 | 81 | 1022.5 |
| 20260902001547 | 59 | 0 | 0.0 | 0.0 | 0.00 | 0.00 | 0.00 | 81 | 1022.3 |
| 20260902001027 | 59 | 0 | 0.0 | 2.0 | 0.00 | 0.00 | 0.00 | 81 | 1022.3 |
| 20260902000528 | 60 | 0 | 0.0 | 3.0 | 0.00 | 0.00 | 0.00 | 80 | 1022.4 |
| 20260902000050 | 60 | 0 | 0.0 | 3.0 | 0.00 | 0.00 | 0.00 | 80 | 1022.3 |
| 20260901235527 | 60 | 312 | 1.0 | 3.0 | 0.00 | 0.00 | 0.00 | 80 | 1022.3 |
| 20260901235028 | 60 | 313 | 1.0 | 3.0 | 0.00 | 0.00 | 0.00 | 79 | 1022.3 |
| 20260901234543 | 61 | 314 | 1.0 | 3.0 | 0.00 | 0.00 | 0.00 | 79 | 1022.3 |
| 20260901234028 | 61 | 0 | 0.0 | 3.0 | 0.00 | 0.00 | 0.00 | 79 | 1022.2 |
| 20260901233527 | 61 | 0 | 1.0 | 3.0 | 0.00 | 0.00 | 0.00 | 78 | 1022.1 |
| 20260901233042 | 62 | 315 | 0.0 | 3.0 | 0.00 | 0.00 | 0.00 | 77 | 1022.0 |
| 20260901232531 | 62 | 0 | 0.0 | 0.0 | 0.00 | 0.00 | 0.00 | 77 | 1022.0 |
| 20260901232027 | 62 | 0 | 0.0 | 2.0 | 0.00 | 0.00 | 0.00 | 76 | 1022.0 |
| 20260901231548 | 62 | 0 | 0.0 | 2.0 | 0.00 | 0.00 | 0.00 | 76 | 1021.9 |
| 20260901231029 | 63 | 0 | 0.0 | 2.0 | 0.00 | 0.00 | 0.00 | 75 | 1021.9 |
| 20260901230529 | 63 | 0 | 0.0 | 0.0 | 0.00 | 0.00 | 0.00 | 74 | 1021.9 |
| 20260901230045 | 64 | 0 | 0.0 | 0.0 | 0.00 | 0.00 | 0.00 | 74 | 1021.8 |
| 20260901225526 | 64 | 0 | 0.0 | 0.0 | 0.00 | 0.00 | 0.00 | 73 | 1021.7 |
| 20260901225027 | 65 | 0 | 0.0 | 0.0 | 0.00 | 0.00 | 0.00 | 72 | 1021.7 |
| 20260901224552 | 65 | 0 | 0.0 | 0.0 | 0.00 | 0.00 | 0.00 | 72 | 1021.8 |
| 20260901224027 | 66 | 0 | 0.0 | 0.0 | 0.00 | 0.00 | 0.00 | 71 | 1021.8 |
| 20260901223527 | 66 | 0 | 0.0 | 0.0 | 0.00 | 0.00 | 0.00 | 71 | 1021.7 |
| 20260901223042 | 67 | 0 | 0.0 | 0.0 | 0.00 | 0.00 | 0.00 | 71 | 1021.8 |
| 20260901222527 | 67 | 0 | 0.0 | 0.0 | 0.00 | 0.00 | 0.00 | 70 | 1021.7 |
| 20260901222026 | 68 | 0 | 0.0 | 1.0 | 0.00 | 0.00 | 0.00 | 69 | 1021.9 |
| 20260901221557 | 68 | 0 | 0.0 | 1.0 | 0.00 | 0.00 | 0.00 | 68 | 1021.8 |
| 20260901221029 | 68 | 316 | 0.0 | 2.0 | 0.00 | 0.00 | 0.00 | 67 | 1021.7 |
| 20260901220528 | 68 | 0 | 0.0 | 3.0 | 0.00 | 0.00 | 0.00 | 67 | 1021.6 |
| 20260901220047 | 68 | 316 | 0.0 | 3.0 | 0.00 | 0.00 | 0.00 | 67 | 1021.5 |
| 20260901215527 | 68 | 0 | 0.0 | 3.0 | 0.00 | 0.00 | 0.00 | 67 | 1021.6 |
| 20260901215028 | 68 | 0 | 0.0 | 3.0 | 0.00 | 0.00 | 0.00 | 67 | 1021.6 |
| 20260901214557 | 69 | 345 | 0.0 | 2.0 | 0.00 | 0.00 | 0.00 | 67 | 1021.5 |
| 20260901214028 | 69 | 0 | 0.0 | 2.0 | 0.00 | 0.00 | 0.00 | 67 | 1021.4 |
| 20260901213530 | 69 | 0 | 0.0 | 2.0 | 0.00 | 0.00 | 0.00 | 66 | 1021.4 |
| 20260901213042 | 69 | 0 | 0.0 | 3.0 | 0.00 | 0.00 | 0.00 | 66 | 1021.3 |
| 20260901212527 | 69 | 0 | 0.0 | 4.0 | 0.00 | 0.00 | 0.00 | 66 | 1021.3 |
| 20260901212028 | 69 | 43 | 0.0 | 8.0 | 0.00 | 0.00 | 0.00 | 66 | 1021.4 |
| 20260901211547 | 69 | 0 | 1.0 | 8.0 | 0.00 | 0.00 | 0.00 | 64 | 1021.4 |
| 20260901211031 | 70 | 0 | 1.0 | 4.0 | 0.00 | 0.00 | 0.00 | 65 | 1021.3 |
| 20260901210528 | 70 | 0 | 1.0 | 4.0 | 0.00 | 0.00 | 0.00 | 66 | 1021.3 |
| 20260901210113 | 70 | 32 | 1.0 | 4.0 | 0.00 | 0.00 | 0.00 | 65 | 1021.2 |
| 20260901205528 | 70 | 0 | 0.0 | 4.0 | 0.00 | 0.00 | 0.00 | 65 | 1021.3 |
| 20260901205028 | 70 | 57 | 1.0 | 4.0 | 0.00 | 0.00 | 0.00 | 63 | 1021.1 |
| 20260901204544 | 71 | 0 | 1.0 | 4.0 | 0.00 | 0.00 | 0.00 | 63 | 1021.0 |
| 20260901204034 | 71 | 47 | 1.0 | 4.0 | 0.00 | 0.00 | 0.00 | 63 | 1021.1 |
| 20260901203530 | 71 | 90 | 1.0 | 4.0 | 0.00 | 0.00 | 0.00 | 65 | 1021.1 |
| 20260901203052 | 71 | 0 | 1.0 | 4.0 | 0.00 | 0.00 | 0.00 | 64 | 1021.1 |
| 20260901202529 | 71 | 0 | 1.0 | 4.0 | 0.00 | 0.00 | 0.00 | 64 | 1021.0 |
| 20260901202027 | 72 | 37 | 0.0 | 4.0 | 0.00 | 0.00 | 0.00 | 64 | 1020.9 |
| 20260901201548 | 72 | 78 | 1.0 | 4.0 | 0.00 | 0.00 | 0.00 | 63 | 1020.9 |
| 20260901201026 | 72 | 93 | 0.0 | 4.0 | 0.00 | 0.00 | 0.00 | 63 | 1020.8 |
| 20260901200527 | 72 | 63 | 1.0 | 5.0 | 0.00 | 0.00 | 0.00 | 62 | 1020.9 |
| 20260901200045 | 72 | 0 | 1.0 | 6.0 | 0.00 | 0.00 | 0.00 | 61 | 1021.0 |
| 20260901195532 | 72 | 0 | 1.0 | 6.0 | 0.00 | 0.00 | 0.00 | 62 | 1021.0 |
| 20260901195027 | 72 | 93 | 0.0 | 4.0 | 0.00 | 0.00 | 0.00 | 60 | 1021.0 |
| 20260901194557 | 73 | 81 | 1.0 | 4.0 | 0.00 | 0.00 | 0.00 | 60 | 1021.1 |
| 20260901194029 | 73 | 99 | 1.0 | 4.0 | 0.00 | 0.00 | 0.00 | 60 | 1021.1 |
| 20260901193527 | 73 | 0 | 0.0 | 7.0 | 0.00 | 0.00 | 0.00 | 63 | 1020.9 |
| 20260901193050 | 73 | 86 | 1.0 | 8.0 | 0.00 | 0.00 | 0.00 | 63 | 1021.0 |
| 20260901192529 | 73 | 348 | 1.0 | 8.0 | 0.00 | 0.00 | 0.00 | 62 | 1020.9 |
| 20260901192030 | 73 | 79 | 1.0 | 7.0 | 0.00 | 0.00 | 0.00 | 63 | 1020.9 |
| 20260901191553 | 73 | 88 | 2.0 | 7.0 | 0.00 | 0.00 | 0.00 | 64 | 1021.0 |
| 20260901191029 | 73 | 0 | 2.0 | 9.0 | 0.00 | 0.00 | 0.00 | 62 | 1020.9 |
| 20260901190531 | 73 | 79 | 3.0 | 9.0 | 0.00 | 0.00 | 0.00 | 62 | 1021.0 |
| 20260901190052 | 73 | 0 | 2.0 | 8.0 | 0.00 | 0.00 | 0.00 | 62 | 1021.0 |
| 20260901185531 | 73 | 78 | 3.0 | 8.0 | 0.00 | 0.00 | 0.00 | 60 | 1020.9 |
| 20260901185027 | 73 | 304 | 1.0 | 6.0 | 0.00 | 0.00 | 0.00 | 61 | 1020.9 |
| 20260901184545 | 73 | 69 | 2.0 | 7.0 | 0.00 | 0.00 | 0.00 | 61 | 1021.0 |
| 20260901184028 | 73 | 101 | 1.0 | 7.0 | 0.00 | 0.00 | 0.00 | 60 | 1021.0 |
| 20260901183531 | 73 | 75 | 2.0 | 7.0 | 0.00 | 0.00 | 0.00 | 59 | 1021.0 |
| 20260901183103 | 73 | 78 | 1.0 | 6.0 | 0.00 | 0.00 | 0.00 | 58 | 1021.0 |
| 20260901182528 | 72 | 111 | 1.0 | 6.0 | 0.00 | 0.00 | 0.00 | 60 | 1021.0 |
| 20260901182028 | 72 | 89 | 1.0 | 6.0 | 0.00 | 0.00 | 0.00 | 61 | 1021.1 |
| 20260901181547 | 72 | 94 | 2.0 | 6.0 | 0.00 | 0.00 | 0.00 | 61 | 1021.3 |
| 20260901181029 | 73 | 92 | 3.0 | 6.0 | 0.00 | 0.00 | 0.00 | 60 | 1021.2 |
| 20260901180531 | 73 | 101 | 1.0 | 6.0 | 0.00 | 0.00 | 0.00 | 60 | 1021.0 |
| 20260901180043 | 73 | 105 | 1.0 | 6.0 | 0.00 | 0.00 | 0.00 | 60 | 1021.3 |
| 20260901175531 | 73 | 0 | 0.0 | 7.0 | 0.00 | 0.00 | 0.00 | 63 | 1021.4 |
| 20260901175028 | 73 | 84 | 1.0 | 7.0 | 0.00 | 0.00 | 0.00 | 63 | 1021.5 |
| 20260901174542 | 73 | 84 | 1.0 | 12.0 | 0.00 | 0.00 | 0.00 | 63 | 1021.4 |
| 20260901174030 | 72 | 53 | 1.0 | 12.0 | 0.00 | 0.00 | 0.00 | 63 | 1021.6 |
| 20260901173529 | 73 | 0 | 2.0 | 6.0 | 0.00 | 0.00 | 0.00 | 63 | 1021.7 |
| 20260901173049 | 73 | 0 | 1.0 | 6.0 | 0.00 | 0.00 | 0.00 | 65 | 1021.8 |
| 20260901172528 | 73 | 94 | 2.0 | 6.0 | 0.00 | 0.00 | 0.00 | 63 | 1021.7 |
| 20260901172027 | 73 | 94 | 0.0 | 6.0 | 0.00 | 0.00 | 0.00 | 64 | 1021.6 |
| 20260901171558 | 72 | 0 | 1.0 | 6.0 | 0.00 | 0.00 | 0.00 | 63 | 1021.6 |
| 20260901171029 | 72 | 0 | 1.0 | 6.0 | 0.00 | 0.00 | 0.00 | 64 | 1021.6 |
| 20260901170528 | 72 | 101 | 1.0 | 6.0 | 0.00 | 0.00 | 0.00 | 65 | 1021.4 |
| 20260901170050 | 72 | 94 | 1.0 | 6.0 | 0.00 | 0.00 | 0.00 | 65 | 1021.4 |
| 20260901165527 | 71 | 74 | 1.0 | 6.0 | 0.00 | 0.00 | 0.00 | 65 | 1021.4 |
| 20260901165031 | 71 | 0 | 2.0 | 6.0 | 0.00 | 0.00 | 0.00 | 66 | 1021.3 |
| 20260901164546 | 71 | 84 | 0.0 | 6.0 | 0.00 | 0.00 | 0.00 | 67 | 1021.3 |
| 20260901164031 | 71 | 79 | 1.0 | 6.0 | 0.00 | 0.00 | 0.00 | 67 | 1021.5 |
| 20260901163530 | 71 | 0 | 1.0 | 9.0 | 0.00 | 0.00 | 0.00 | 68 | 1021.5 |
| 20260901163054 | 71 | 99 | 1.0 | 9.0 | 0.00 | 0.00 | 0.00 | 68 | 1021.5 |
| 20260901162527 | 71 | 107 | 4.0 | 8.0 | 0.00 | 0.00 | 0.00 | 67 | 1021.6 |
| 20260901162028 | 71 | 85 | 3.0 | 8.0 | 0.00 | 0.00 | 0.00 | 69 | 1021.7 |
| 20260901161559 | 71 | 65 | 3.0 | 6.0 | 0.00 | 0.00 | 0.00 | 65 | 1021.5 |
| 20260901161030 | 71 | 95 | 1.0 | 6.0 | 0.00 | 0.00 | 0.00 | 66 | 1021.6 |
| 20260901160530 | 71 | 96 | 1.0 | 3.0 | 0.00 | 0.00 | 0.00 | 67 | 1021.8 |
| 20260901160048 | 71 | 0 | 1.0 | 4.0 | 0.00 | 0.00 | 0.00 | 66 | 1021.8 |
| 20260901155527 | 71 | 102 | 1.0 | 4.0 | 0.00 | 0.00 | 0.00 | 67 | 1021.7 |
| 20260901155030 | 71 | 102 | 1.0 | 4.0 | 0.00 | 0.00 | 0.00 | 67 | 1022.0 |
| 20260901154610 | 70 | 107 | 0.0 | 6.0 | 0.00 | 0.00 | 0.00 | 69 | 1022.0 |
| 20260901154028 | 70 | 103 | 2.0 | 6.0 | 0.00 | 0.00 | 0.00 | 69 | 1022.1 |
| 20260901153528 | 69 | 98 | 1.0 | 6.0 | 0.00 | 0.00 | 0.00 | 71 | 1022.0 |
| 20260901153048 | 68 | 0 | 1.0 | 4.0 | 0.00 | 0.00 | 0.00 | 73 | 1021.9 |
| 20260901152526 | 68 | 85 | 2.0 | 4.0 | 0.00 | 0.00 | 0.00 | 73 | 1021.8 |
| 20260901152028 | 68 | 0 | 0.0 | 4.0 | 0.00 | 0.00 | 0.00 | 73 | 1021.9 |
| 20260901151553 | 68 | 85 | 1.0 | 4.0 | 0.00 | 0.00 | 0.00 | 72 | 1021.8 |
| 20260901151028 | 68 | 0 | 0.0 | 0.0 | 0.00 | 0.00 | 0.00 | 73 | 1021.9 |
| 20260901150527 | 67 | 0 | 0.0 | 0.0 | 0.00 | 0.00 | 0.00 | 73 | 1021.8 |
| 20260901150054 | 67 | 0 | 0.0 | 0.0 | 0.00 | 0.00 | 0.00 | 73 | 1022.0 |
| 20260901145528 | 67 | 0 | 0.0 | 2.0 | 0.00 | 0.00 | 0.00 | 74 | 1021.8 |
| 20260901145027 | 67 | 0 | 0.0 | 2.0 | 0.00 | 0.00 | 0.00 | 75 | 1021.9 |
| 20260901144546 | 66 | 82 | 1.0 | 2.0 | 0.00 | 0.00 | 0.00 | 77 | 1021.9 |
| 20260901144028 | 66 | 82 | 0.0 | 2.0 | 0.00 | 0.00 | 0.00 | 76 | 1022.1 |
| 20260901143529 | 66 | 0 | 0.0 | 2.0 | 0.00 | 0.00 | 0.00 | 76 | 1022.1 |
| 20260901143044 | 66 | 82 | 0.0 | 2.0 | 0.00 | 0.00 | 0.00 | 77 | 1022.2 |